Regional Weather Roundup
Issued by NWS

Home | Current Version | Previous Version | Text Only | Print | Product List | Glossary On
Versions: 1 2 3 4 5 6 7 8 9 10 11 12 13 14 15 16 17 18 19 20 21 22 23 24 25 26 27 28 29 30 31 32 33 34 35 36 37 38 39 40 41 42 43 44 45 46 47 48 49 50
000
ASCA44 KEWX 022120
RWRMX

LATIN AMERICA AND CARIBBEAN REGIONAL WEATHER ROUNDUP
NATIONAL WEATHER SERVICE AUSTIN/SAN ANTONIO TX
400 PM CDT WED SEP 02 2015

NOTE: "FAIR" INDICATED FEW OR NO CLOUDS BELOW 12,000 FEET WITH NO
SIGNIFICANT WEATHER AND/OR OBSTRUCTIONS TO VISIBILITY.

BAJA CALIFORNIA

CITY           SKY/WX    TMP DP  RH WIND       PRES   REMARKS
LORETO         CLOUDY    93  81  66 SE6       29.81F HX 113
LA PAZ         CLOUDY    93  68  43 W6        29.86  HX  97
MEXICALI       PTSUNNY   97  57  26 SE9       29.79  HX  95
S.J. DEL CABO  PTSUNNY   90  70  51 E16       29.86F HX  95
TIJUANA        MOSUNNY   75  55  50 W10       29.98S

NORTHWESTERN MEXICO

CITY           SKY/WX    TMP DP  RH WIND       PRES   REMARKS
CULIACAN       PTSUNNY   95  81  63 W8        29.86  HX 115
DURANGO        PTSUNNY   84  36  17 NW10      30.19
GUAYMAS        CLOUDY    93  81  66 CALM      29.80  HX 113
HERMOSILLO     CLOUDY    93  75  55 N6        29.91  HX 104
CD. JUAREZ     MOSUNNY   99  54  22 CALM      29.98  HX  96
LOS MOCHIS     CLOUDY    90  73  58 SW12      29.85F HX  98
OBREGON        CLOUDY    97  68  38 NW3       29.82  HX 101

NORTHEASTERN MEXICO

CITY           SKY/WX    TMP DP  RH WIND       PRES   REMARKS
CHIHUAHUA      PTSUNNY   91  46  21 N12       30.08
MATAMOROS      PTSUNNY   88  81  79 S6        29.92  HX 105
MONCLOVA       MOSUNNY   93  66  40 CALM      29.92F HX  96
MONTERREY      MOSUNNY   91  64  40 SE13      29.92F HX  93
NUEVO LAREDO   PTSUNNY   99  68  36 CALM      29.90  HX 104
PIEDRAS NEGRAS MOSUNNY   93  70  46 SE9       29.94F HX  99
REYNOSA        PTSUNNY   91  68  46 SE9       29.88  HX  95
SALTILLO       MOSUNNY   84  68  58 NE17      30.12F
TORREON        MOSUNNY   95  50  21 CALM      30.03F HX  92
CD. VICTORIA   MOSUNNY   95  63  34 SE9       29.88  HX  96

WESTERN MEXICO

CITY           SKY/WX    TMP DP  RH WIND       PRES   REMARKS
AGUASCALIENTES MOSUNNY   79  57  47 SE8       30.22
COLIMA         PTSUNNY   82  72  69 W12       30.00F
DEL BAJIO      PTSUNNY   79  59  50 S6        30.24F
GUADALAJARA    PTSUNNY   79  61  53 SE3       30.14
MANZANILLO     MOSUNNY   90  77  66 W14       29.82S HX 102
MAZATLAN       PTSUNNY   86  77  74 S10       29.85F HX  97
P. VALLARTA      N/A    N/A N/A N/A MISG        N/A
URUAPAN        TSTM      66  66 100 CALM      30.19F
ZACATECAS      PTSUNNY   77  50  38 SE9       30.24F

CENTRAL MEXICO

CITY           SKY/WX    TMP DP  RH WIND       PRES   REMARKS
CUERNAVACA     PTSUNNY   77  64  65 S3        30.11F
MEXICO CITY    MOSUNNY   73  52  46 SW6       30.27F
MORELIA        PTSUNNY   79  57  47 E7        30.19
POZA RICA        N/A    N/A N/A N/A MISG        N/A
PUEBLA         PTSUNNY   73  55  53 SE5       30.28F
QUERETARO      PTSUNNY   72  61  68 N12       30.15F
S. LUIS POTOSI PTSUNNY   79  50  36 SE12      30.18F
TAMPICO        PTSUNNY   86  75  70 E14       29.87F HX  95
TOLUCA         CLOUDY    66  55  68 SE18      30.34F THUNDER

SOUTHERN MEXICO

CITY           SKY/WX    TMP DP  RH WIND       PRES   REMARKS
ACAPULCO       PTSUNNY   90  77  66 SE10      29.86F HX 102
B. DE HUATULCO CLOUDY    82  70  65 S7        29.96
OAXACA         CLOUDY    75  63  64 N7        30.15F
P. ESCONDIDO   PTSUNNY   82  75  78 SE9       29.98F
VERACRUZ       MOSUNNY   88  77  70 E7        29.86F HX 100
ZIHUATANEJO    PTSUNNY   93  77  59 S12       29.85F HX 107

YUCATAN PENINSULA

CITY           SKY/WX    TMP DP  RH WIND       PRES   REMARKS
CAMPECHE       RAIN      77  75  94 W12       29.85F
CANCUN         PTSUNNY   88  79  74 E8        29.95F HX 102
CHETUMAL       PTSUNNY   88  77  70 SE12      29.91  HX 100
CD. DEL CARMEN MOSUNNY   91  75  59 NE5       29.84  HX 102
COZUMEL        MOSUNNY   86  77  74 E7        29.95F HX  97
MERIDA         PTSUNNY   95  75  52 SE16      29.89F HX 107
MINATITLAN     CLOUDY    88  68  51 N9        29.81F HX  91
TAPACHULA      PTSUNNY   82  75  78 NE17      29.89F
TUX. GUTIERREZ PTSUNNY   88  68  51 CALM      29.92F HX  91
VILLAHERMOSA   MOSUNNY   93  72  49 W6        29.85F HX 100

CENTRAL AMERICA

CITY           SKY/WX    TMP DP  RH WIND       PRES   REMARKS
BELIZE CITY    MOSUNNY   90  79  70 E12       29.88F HX 105
MANAGUA        PTCLDY    90  70  51 E14       29.83S THUNDER HX  95

CARIBBEAN

CITY           SKY/WX    TMP DP  RH WIND       PRES   REMARKS
ARUBA          MOSUNNY   90  77  66 E22       29.80F HX 102
CURACAO        MOSUNNY   88  77  70 E14       29.86F HX 100
KINGSTON       MOSUNNY   88  77  70 SE23      29.89S HX 100
NASSAU         MOSUNNY   88  75  66 NE7       30.01F HX  97
SAN JUAN       MOSUNNY   88  72  58 CALM      29.96R HX  94
SANTO DOMINGO  PTSUNNY   79  73  83 E9        29.92F
ST. CROIX      MOSUNNY   86  75  70 SE7       29.97S HX  95
ST. KITTS      MOSUNNY   84  77  79 NE9       29.97R HX  94
ST. MAARTEN    MOSUNNY   86  77  74 SE7       29.97R HX  97
ST. THOMAS     SUNNY     88  77  70 SE9       29.96S HX 100

$$



USA.gov is the U.S. government's official web portal to all federal, state and local government web resources and services.